User: anonymous   Login
Location: Prague
(50.0830°N, 14.4670°E)
Time: 19:29:52
(UTC+01:00)
Language:

CUBESAT XI-V - Orbit

View from above orbital plane
View from above orbital plane
View from above satellite
View from above satellite

Ground track
Ground track

The orbit data is extracted from the following two-line orbital elements,

1 28895U 05043F   21341.34788175  .00000244  00000-0  55451-4 0  9992
2 28895  98.0819 111.0660 0017209  30.1634 330.0556 14.64019727859533
Epoch (UTC): 07 December 2021 08:20:56
Eccentricity: 0.0017209
inclination: 98.0819°
perigee height: 668 km
apogee height: 692 km
right ascension of ascending node: 111.0660°
argument of perigee: 30.1634°
revolutions per day: 14.64019727
mean anomaly at epoch: 330.0556°
orbit number at epoch: 85953

The dashed part of the orbit path shows where the satellite is in the earth's shadow,  

DLR